Location: Unspecified
(0.0000°N, 0.0000°E)
Time: 17:48:22
(UTC+00:00)

Amsat-Oscar-6 - Pass Details

Date: 21 June 2019
Orbit: 1448 x 1454 km, 101.8° (Epoch: 16 August)

Event Time Altitude Azimuth Distance (km) Brightness Sun altitude
Rises 02:31:07 0° 32° (NNE) 4,543 ? -46.8°
Reaches altitude 10° 02:34:06 10° 39° (NE) 3,567 ? -46.2°
Enters shadow 02:40:55 41° 92° (E) 2,003 ? -44.8°
